Flag for Taiwan Weather past 2 weeks in Taipei, Taiwan

Now
81 °F

Passing clouds.


Feels Like: 83 °F
Forecast: 75 / 83 °F
Wind: 13 mph from East

Location: Sungshan / Taipei

Current Time: Oct 2, 2014 at 5:20:01 PM

Latest Report: Oct 2, 2014 at 4:30 PM


Visibility: N/A

Pressure: 29.80 "Hg

Humidity: 66%

Dew point: 68 °F

Location of TaipeiLocation

Historic Weather in Taipei — Graph

°F

Taipei temperature yesterday

Maximum temperature yesterday: 84 °F (at 3:00 PM)
Minimum temperature yesterday: 77 °F (at 5:00 AM)
Average temperature yesterday: 79 °F

Past Weeks' High & Low Weather Summary

 TemperatureHumidityPressure
High97 °F (Sep 20, 11:50 AM)94% (Sep 24, 6:49 AM)29.98 "Hg (Sep 24, 6:49 AM)
Low75 °F (Sep 27, 5:00 AM)34% (Sep 21, 12:00 PM)29.45 "Hg (Sep 21, 2:00 PM)
Average83 °F69%29.80 "Hg
* Reported Sep 17 4:00 PM — Oct 2 4:00 PM, Taipei, Weather by CustomWeather, © 2014

Note: Actual official high and low records may vary slightly from our data, if they occured in-between our weather recording intervals... More about our weather records

Advertising

Taipei weather history for previous 24 hours

 ConditionsComfort  
Time TempWeatherWind HumidityBarometerVisibility
4:00 PM
Oct 2
82 °FPassing clouds.14 mph62%29.80 "HgN/A
3:30 PM82 °FPassing clouds.14 mph62%29.77 "HgN/A
3:00 PM84 °FPassing clouds.12 mph58%29.77 "HgN/A
2:30 PM84 °FPassing clouds.14 mph58%29.77 "HgN/A
2:00 PM84 °FScattered clouds.14 mph58%29.80 "HgN/A
1:30 PM82 °FBroken clouds.14 mph66%29.80 "HgN/A
1:00 PM84 °FPartly sunny.13 mph58%29.80 "HgN/A
12:30 PM84 °FPartly sunny.15 mph62%29.83 "HgN/A
12:00 PM86 °FPartly sunny.13 mph55%29.83 "HgN/A
11:30 AM84 °FBroken clouds.12 mph62%29.83 "HgN/A
11:00 AM84 °FBroken clouds.13 mph62%29.86 "HgN/A
10:30 AM84 °FBroken clouds.9 mph62%29.86 "HgN/A
10:00 AM84 °FPartly sunny.9 mph66%29.86 "HgN/A
9:30 AM81 °FPartly sunny.10 mph74%29.86 "HgN/A
9:00 AM81 °FPartly sunny.6 mph74%29.86 "HgN/A
8:30 AM81 °FScattered clouds.6 mph74%29.89 "HgN/A
8:00 AM81 °FScattered clouds.5 mph74%29.86 "HgN/A
7:30 AM81 °FPassing clouds.6 mph74%29.86 "HgN/A
7:00 AM79 °FPassing clouds.5 mph79%29.86 "HgN/A
6:30 AM77 °FPassing clouds.2 mph83%29.86 "HgN/A
6:00 AM75 °FScattered clouds.5 mph83%29.86 "HgN/A
5:00 AM77 °FPassing clouds.5 mph83%29.83 "HgN/A
4:00 AM77 °FPartly cloudy.7 mph83%29.83 "HgN/A
3:00 AM77 °FPassing clouds.10 mph83%29.83 "HgN/A
2:00 AM79 °FPassing clouds.10 mph79%29.86 "HgN/A
1:00 AM77 °FPassing clouds.10 mph83%29.86 "HgN/A
12:00 AM77 °FPassing clouds.9 mph83%29.89 "HgN/A
11:30 PM
Oct 1
77 °FPassing clouds.8 mph83%29.89 "HgN/A
11:00 PM77 °FPartly cloudy.9 mph83%29.89 "HgN/A
10:30 PM79 °FPartly cloudy.10 mph79%29.89 "HgN/A
10:00 PM79 °FPartly cloudy.9 mph79%29.92 "HgN/A
9:30 PM79 °FPartly cloudy.10 mph79%29.92 "HgN/A
9:00 PM79 °FPartly cloudy.10 mph79%29.92 "HgN/A
8:30 PM79 °FPartly cloudy.7 mph79%29.92 "HgN/A
8:00 PM79 °FPartly cloudy.13 mph79%29.92 "HgN/A
7:30 PM79 °FPartly cloudy.10 mph79%29.89 "HgN/A
7:00 PM79 °FPassing clouds.12 mph79%29.89 "HgN/A
6:30 PM79 °FPassing clouds.12 mph79%29.89 "HgN/A
6:00 PM79 °FPassing clouds.13 mph79%29.89 "HgN/A
5:30 PM79 °FScattered clouds.12 mph79%29.86 "HgN/A
5:00 PM81 °FBroken clouds.13 mph74%29.86 "HgN/A
Weather by CustomWeather, © 2014

See weather overviewHow to use our weather pages